Location: Unspecified
(56.5167°N, 0.0000°E)
Time: 13:51:18
(UTC+02:00)

CZ-3 Stage 3 - Visible Passes

Search period start: 03 August 2020 00:00
Search period end: 13 August 2020 00:00
Orbit: 421 x 34768 km, 31.2° (Epoch: 02 August)

Date Brightness Start Highest point End Pass type
(mag) Time Alt. Az. Time Alt. Az. Time Alt. Az.
03 Aug 8.1 05:07:15 10° SSE 11:24:35 59° SSE 14:07:57 10° SE visible
04 Aug 9.8 03:02:31 10° E 08:11:07 35° E 10:15:22 10° E visible
06 Aug 8.1 04:55:51 10° SSE 11:10:02 59° SSE 13:57:11 10° SE visible
07 Aug 9.7 02:48:56 10° E 07:58:34 35° E 10:04:08 10° E visible
09 Aug 8.0 04:44:29 10° SSE 10:55:36 59° SSE 13:46:23 10° SE visible
10 Aug 9.6 02:35:25 10° E 07:46:01 34° E 09:52:52 10° E visible
12 Aug 8.0 04:33:08 10° SSE 10:41:16 59° SSE 13:35:33 10° SE visible
